User: anonymous   Login
Location: Bangkok
(13.7500°N, 100.5170°E)
Time: 13:40:29
(UTC+07:00)
Language:

SPOT 1/Viking Rocket - Orbit

View from above orbital plane
View from above orbital plane
View from above satellite
View from above satellite

Ground track
Ground track

The orbit data is extracted from the following two-line orbital elements,

1 16615U 86019C   14294.80814337  .00000389  00000-0  16403-3 0  5237
2 16615 098.7427 346.8735 0011794 019.7692 105.8143 14.31326297500803
Epoch (UTC): 21 October 2014 19:23:43
Eccentricity: 0.0011794
inclination: 98.7427°
perigee height: 779 km
apogee height: 796 km
right ascension of ascending node: 346.8735°
argument of perigee: 19.7692°
revolutions per day: 14.31326297
mean anomaly at epoch: 105.8143°
orbit number at epoch: 50080

The dashed part of the orbit path shows where the satellite is in the earth's shadow,  

DLR